COSMOS 2251 DEB, 34446

Orbit data source: Space-Track

COSMOS 2251 DEB, 34446 is space debris in LEO originally from a launch on Wed, 16 Jun 1993 UTC launched from the Plesetsk Missile And Space Complex (PKMTR). The debris from Iridium 33, an American commercial communications satellite, has been tracked extensively since its accidental collision with the defunct Russian satellite Cosmos 2251 in 2009. This event, occurring at high speed in low Earth orbit (LEO), generated thousands of pieces of space debris, significantly increasing the risk of further collisions. The Iridium 33 debris cloud has impacted space traffic management and orbital debris mitigation strategies, making it a subject of ongoing study in space situational awareness.

Loading next visibility...
Identifier
34446, 1993-036SP
Orbit
LEO
Country
Flag of CISCIS
Related business
Manufacturer
Unknown
Mission
Spacecraft
Bus & Motor
Unknown
Mass
Unknown
Launch date (UTC)
1993-06-16 (33 years ago)
Launch vehicle
Unknown
Launch site
Plesetsk Missile And Space Complex (PKMTR)
Object type
Payload
Rocket body
Debris
Shape & HBR
Unknown shape, 0.1 m
Radar Cross Section
Small (<0.1 m²)

Expand to show TLE details & history
Last TLE update: 16 hours ago

TLE from 16 hours ago
0 COSMOS 2251 DEB
1 34446U 93036SP  26061.96035008  .00000475  00000-0  12933-3 0  9995
2 34446  74.0391 266.8312 0050414  22.2255 338.1074 14.49451871898563
Epoch: 2026-03-02T23:02Z
TLE epoch observation values (Epoch: 2026-03-02T23:02:54.246Z)
Latitude
-0.00004°
Longitude
120.3589°
Altitude
696.848 km
Speed
7.525 km/s
True Right ascension
17h 47m 19s
True Declination
0° 00' 00"
Sunlit
Object was in daylight at epoch
Visualization orbit readout
Latitude
Unknown
Longitude
Unknown
Altitude
Unknown
Speed
Unknown
Apparent Right ascension
Unknown
Apparent Declination
Unknown
Sunlit
N/A
Visualization observer readout
Local Sidereal Time
18:20:48
Azimuth
Unknown
Elevation
Unknown
Doppler factor
Unknown
Orbital elements
Apogee altitude
760.858 km
Perigee altitude
689.238 km
Semi-major axis
7,103.185 km
Eccentricity
0.00504
Inclination
74.0391°
RAAN
266.8312°
Arg. of periapsis
22.2255°
True anomaly
337.89073°
Mean anomaly
338.1074°
Eccentric anomaly
337.99919°
Mean motion
3.62546 °/min
Orbital period
99.3 mins
BSTAR
0.00012933
Loading maneuver chart data...
Computing Atmospheric mass density...

Documentation

Showing up to 5 results
|